SCP
0 0 0 0 0 0 0 0 0 0 0 0 0 0 0 0 0 0 0 0 0 0 0 0 0 0 0 0 0 0 0 0 0 0 0 0 0 0 0 0 0 0 0
0 0 0 0 0 0 0 0 0 0 0 0 0 0 0 0 0 0 0 0 0 0 0 0 0 0 0 0 0 0 0 0 0 0 0 0 0 0 0 0 0 0 0
0 0 0 0 0 0 0 0 0 0 0 0 0 0 0 0 0 0 0 0 0 0 0 0 0 0 0 0 0 0 0 0 0 0 0 0 0 0 0 0 0 0 0
0 0 0 0 0 0 0 0 0 0 0 0 0 0 0 0 0 0 0 0 0 0 0 0 0 0 0 0 0 0 0 0 0 0 0 0 0 0 0 0 0 0 0
0 0 0 0 0 0 0 0 0 0 0 0 0 0 0 0 0 0 0 0 0 0 0 0 0 0 0 0 0 0 0 0 0 0 0 0 0 0 0 0 0 0 0
0 0 0 0 0 0 0 0 0 0 0 0 0 0 0 0 0 0 0 0 0 0 0 0 0 0 0 0 0 0 0 0 0 0 0 0 0 0 0 0 0 0 0
0 0 0 0 0 0 0 0 0 0 0 0 0 0 0 0 0 0 0 0 0 0 0 0 0 0 0 0 0 0 0 0 0 0 0 0 0 0 0 0 0 0 0
0 0 0 0 0 0 0 0 0 0 0 0 0 0 0 0 0 0 0 0 0 0 0 0 0 0 0 0 0 0 0 0 0 0 0 0 0 0 0 0 0 0 0
0 0 0 0 0 0 0 0 0 0 0 0 0 0 0 0 0 0 0 0 0 0 0 0 0 0 0 0 0 0 0 0 0 0 0 0 0 0 0 0 0 0 0
0 0 0 0 0 0 0 0 0 0 0 0 0 0 0 0 0 0 0 0 0 0 0 0 0 0 0 0 0 0 0 0 0 0 0 0 0 0 0 0 0 0 0
0 0 0 0 0 0 0 0 0 0 0 0 0 0 0 0 0 0 0 0 0 0 0 0 0 0 0 0 0 0 0 0 0 0 0 0 0 0 0 0 0 0 0
0 0 0 0 0 0 0 0 0 0 0 0 0 0 0 0 0 0 0 0 0 0 0 0 0 0 0 0 0 0 0 0 0 0 0 0 0 0 0 0 0 0 0
0 0 0 0 0 0 0 0 0 0 0 0 0 0 0 0 0 0 0 0 0 0 0 0 0 0 0 0 0 0 0 0 0 0 0 0 0 0 0 0 0 0 0
0 0 0 0 0 0 0 0 0 0 0 0 0 0 0 0 0 0 0 0 0 0 0 0 0 0 0 0 0 0 0 0 0 0 0 0 0 0 0 0 0 0 0
0 0 0 0 0 0 0 0 0 0 0 0 0 0 0 0 0 0 0 0 0 0 0 0 0 0 0 0 0 0 0 0 0 0 0 0 0 0 0 0 0 0 0
0 0 0 0 0 0 0 0 0 0 0 0 0 0 0 0 0 0 0 0 0 0 0 0 0 0 0 0 0 0 0 0 0 0 0 0 0 0 0 0 0 0 0
0 0 0 0 0 0 0 0 0 0 0 0 0 0 0 0 0 0 0 0 0 0 0 0 0 0 0 0 0 0 0 0 0 0 0 0 0 0 0 0 0 0 0
0 0 0 0 0 0 0 0 0 0 0 0 0 0 0 0 0 0 0 0 0 0 0 0 0 0 0 0 0 0 0 0 0 0 0 0 0 0 0 0 0 0 0
0 0 0 0 0 0 0 0 0 0 0 0 0 0 0 0 0 0 0 0 0 0 0 0 0 0 0 0 0 0 0 0 0 0 0 0 0 0 0 0 0 0 0
0 0 0 0 0 0 0 0 0 0 0 0 0 0 0 0 0 0 0 0 0 0 0 0 0 0 0 0 0 0 0 0 0 0 0 0 0 0 0 0 0 0 0
0 0 0 0 0 0 0 0 0 0 0 0 0 0 0 0 0 0 0 0 0 0 0 0 0 0 0 0 0 0 0 0 0 0 0 0 0 0 0 0 0 0 0
0 0 0 0 0 0 0 0 0 0 0 0 0 0 0 0 0 0 0 0 0 0 0 0 0 0 0 0 0 0 0 0 0 0 0 0 0 0 0 0 0 0 0
0 0 0 0 0 0 0 0 0 0 0 0 0 0 0 0 0 0 0 0 0 0 0 0 0 0 0 0 0 0 0 0 0 0 0 0 0 0 0 0 0 0 0
0 0 0 0 0 0 0 0 0 0 0 0 0 0 0 0 0 0 0 0 0 0 0 0 0 0 0 0 0 0 0 0 0 0 0 0 0 0 0 0 0 0 0
0 0 0 0 0 0 0 0 0 0 0 0 0 0 0 0 0 0 0 0 0 0 0 0 0 0 0 0 0 0 0 0 0 0 0 0 0 0 0 0 0 0 0
0 0 0 0 0 0 0 0 0 0 0 0 0 0 0 0 0 0 0 0 0 0 0 0 0 0 0 0 0 0 0 0 0 0 0 0 0 0 0 0 0 0 0
Wind_Speed_500mb
22 28 37 47 56 59 66 64 62 62 61 64 65 70 70 79 78 76 83 79 81 77 76 74 70 61 55 49 43 37 29 20 15 16 18 29 29 29 29 30 33 37 40
25 31 38 44 53 60 63 61 62 60 60 60 64 70 74 70 78 80 81 82 81 79 80 76 67 63 57 50 42 34 22 19 18 17 26 27 28 28 28 31 35 40 44
34 34 42 49 55 59 60 60 59 59 60 58 65 70 72 77 82 90 85 76 77 80 85 79 71 62 54 48 40 27 25 24 19 18 23 24 28 27 28 32 37 43 51
44 46 46 51 58 60 59 58 56 55 58 58 59 59 65 69 80 81 84 78 77 75 72 70 66 63 58 47 32 25 22 21 17 23 29 28 28 29 33 39 44 51 61
49 50 49 52 58 59 60 56 53 53 57 57 61 63 65 67 74 75 77 76 71 71 64 58 53 51 38 34 21 21 23 22 23 30 29 32 34 36 41 46 55 63 68
63 61 56 59 60 61 61 58 53 53 55 57 58 59 60 64 71 73 73 70 73 70 68 63 59 48 43 24 21 29 25 24 31 34 32 37 41 44 46 52 60 66 73
71 67 63 62 63 61 59 59 56 52 54 56 56 57 56 59 66 73 69 67 71 67 63 68 65 51 35 23 23 30 35 35 35 35 38 39 46 47 52 57 61 64 70
60 59 58 59 58 57 57 58 57 51 54 56 56 53 56 55 65 66 65 66 66 67 69 63 60 48 23 24 42 42 42 42 38 40 41 41 49 52 56 59 62 64 69
53 52 51 52 53 55 55 55 55 51 52 54 50 53 53 50 60 66 67 63 68 65 63 64 53 33 19 52 44 43 50 49 50 46 41 43 50 52 53 52 50 53 67
47 45 43 43 45 48 45 48 49 52 52 53 49 49 48 45 54 54 60 67 66 70 72 67 58 32 59 48 45 48 54 51 48 46 45 47 50 51 46 41 47 54 59
42 40 38 37 36 37 39 43 43 48 47 45 42 40 40 41 48 60 74 75 77 74 74 72 62 65 56 44 50 49 48 47 48 49 47 48 48 50 52 53 51 52 58
38 36 34 32 31 32 35 34 38 37 37 37 35 34 34 40 47 60 73 76 67 72 72 69 62 61 50 46 44 47 46 46 46 46 45 47 48 51 54 55 57 59 58
30 30 28 25 26 26 26 30 31 30 29 29 29 30 36 38 47 56 62 62 61 66 66 65 60 52 50 50 50 43 50 50 48 49 49 49 49 51 54 56 55 55 58
22 23 24 26 27 28 31 31 30 28 26 25 24 26 31 36 50 60 61 59 61 63 60 57 56 55 49 42 49 53 54 49 48 49 49 47 49 51 50 50 52 52 54
22 24 26 25 26 28 26 24 23 18 16 13 12 18 25 32 43 53 63 60 56 57 59 55 61 63 64 60 57 52 51 49 47 46 44 47 46 45 44 48 48 48 48
26 28 27 30 29 26 25 23 21 21 22 20 19 18 17 23 31 45 53 55 61 60 56 63 69 65 66 64 56 54 52 47 45 44 45 42 41 41 43 43 44 43 43
24 24 22 21 20 19 17 15 17 21 24 26 25 27 25 28 29 30 40 47 52 57 63 65 64 70 67 62 58 53 49 45 43 44 42 40 39 39 38 40 40 39 38
21 19 19 17 17 18 18 16 16 18 22 25 27 26 25 28 32 35 36 42 54 59 67 66 68 67 65 62 58 52 48 44 43 42 41 38 36 35 36 38 37 35 34
19 18 17 19 18 19 20 22 20 19 19 21 22 24 26 28 26 26 35 46 52 59 61 57 60 60 56 52 49 47 46 45 44 41 39 36 33 32 33 34 33 31 31
21 18 17 18 19 20 20 22 22 23 22 22 21 24 24 28 34 40 46 49 52 55 55 55 51 49 47 46 47 47 47 46 44 41 38 35 33 32 32 32 30 30 30
22 20 18 18 18 17 17 19 20 22 22 20 24 22 22 24 25 27 33 34 36 39 42 44 45 45 46 47 48 47 47 46 44 41 39 36 33 31 31 32 31 31 31
20 19 19 18 18 19 21 23 24 26 26 27 26 28 32 36 33 32 36 38 40 42 43 45 47 48 48 49 49 48 47 46 44 42 40 37 35 33 32 31 32 32 32
17 17 18 18 18 19 21 23 23 26 26 26 27 30 36 37 37 40 43 45 47 49 50 51 52 51 51 52 51 50 47 46 44 43 42 40 37 36 34 32 32 33 33
15 15 16 16 18 18 19 20 21 24 25 27 30 34 38 41 44 47 49 49 49 50 50 51 52 53 54 53 51 50 48 48 47 46 45 42 41 40 36 34 34 35 35
15 16 17 18 19 20 20 22 24 26 26 29 32 35 39 42 45 47 49 52 53 54 53 54 55 55 56 55 53 51 49 51 50 50 48 45 43 42 39 36 36 37 37
11 13 14 16 17 19 21 23 25 28 31 34 37 41 44 46 47 50 52 52 53 55 56 56 55 55 56 56 55 54 53 53 53 51 50 47 45 43 40 37 36 37 37
Wind_Direction_500mb
284 269 256 248 243 239 240 242 243 242 236 231 233 232 232 232 234 228 227 233 235 228 225 223 223 225 223 217 207 201 200 201 209 213 253 262 266 275 288 297 305 308 312
291 283 268 255 246 242 243 245 243 242 237 233 235 236 238 234 237 233 232 234 231 229 223 221 221 216 210 203 195 189 204 213 228 247 253 262 272 282 293 301 308 312 314
276 276 272 263 251 244 245 247 246 242 239 240 241 241 241 243 236 234 229 229 228 225 222 221 219 210 201 191 190 206 206 243 235 244 252 265 276 286 296 304 309 310 312
256 254 257 260 256 249 248 247 248 243 241 243 247 243 249 247 242 237 233 224 224 221 217 213 209 202 194 189 197 214 231 219 249 260 262 266 278 290 296 301 305 310 311
275 268 267 267 262 253 249 248 250 245 241 241 242 247 251 251 241 238 234 227 222 218 211 207 201 188 189 188 222 223 216 238 249 251 260 277 281 287 296 303 306 308 309
276 276 272 270 268 260 254 250 250 246 244 244 246 251 250 248 243 237 228 221 213 214 211 198 191 191 193 213 228 212 237 251 245 252 265 276 284 290 298 302 305 309 310
277 275 271 267 267 263 256 250 249 247 244 244 246 251 252 247 244 236 223 216 219 206 214 200 192 196 207 242 248 276 261 240 250 262 272 283 288 294 297 301 303 304 303
276 275 271 266 263 259 253 251 248 246 245 248 246 249 254 250 246 232 217 213 218 218 204 213 204 201 233 285 286 271 244 241 252 260 265 281 289 295 298 300 301 303 307
273 273 271 266 260 255 250 248 246 243 244 247 250 247 248 247 245 230 214 210 214 206 215 201 201 221 266 267 274 257 246 247 252 263 274 282 287 290 295 298 295 297 298
271 270 265 259 256 254 250 246 245 242 244 246 248 247 247 243 244 224 203 206 213 215 206 210 219 231 250 261 278 258 254 258 263 269 272 279 285 290 291 290 296 294 295
271 265 259 253 246 242 238 237 236 237 239 245 247 250 249 246 241 220 205 207 211 213 215 218 219 238 253 266 281 274 268 263 268 276 281 287 294 299 304 302 300 299 298
267 263 256 247 239 232 228 225 225 230 232 236 240 243 246 243 231 216 204 209 213 217 223 228 233 245 255 271 274 268 261 263 270 276 280 283 285 290 294 299 301 299 298
250 244 237 234 229 220 220 221 218 216 221 230 235 237 238 228 217 212 211 209 212 221 229 227 244 251 265 271 278 258 254 259 264 273 278 283 286 290 294 297 301 305 306
229 222 217 208 207 202 198 202 207 206 208 216 224 230 234 224 213 206 206 215 222 225 223 233 246 252 265 263 265 253 253 257 268 271 275 281 286 290 295 301 305 309 313
222 213 202 195 192 194 196 200 205 199 197 199 218 230 231 226 223 216 214 212 217 220 231 235 239 253 261 261 261 252 252 261 265 269 275 280 284 291 299 303 308 313 318
208 196 193 189 182 183 187 185 184 187 187 192 196 198 212 225 230 226 226 225 230 235 232 238 249 254 257 257 252 251 256 261 264 271 276 280 287 293 299 304 309 314 320
196 195 198 195 183 183 185 186 195 196 197 202 205 207 204 206 212 213 224 231 229 228 240 249 249 253 250 251 251 253 255 257 264 271 275 279 284 292 300 303 309 315 318
193 186 190 200 187 179 179 192 199 214 207 204 208 210 205 207 208 209 212 217 224 231 242 246 248 247 248 248 247 248 251 257 264 265 268 275 283 291 298 302 307 310 313
193 195 192 199 199 194 190 193 196 205 208 212 212 214 218 216 215 216 217 225 230 231 240 242 242 243 244 245 245 247 253 257 259 261 267 274 281 288 294 297 299 303 306
206 200 200 203 202 200 201 206 206 215 221 216 218 227 230 228 223 221 225 225 224 230 236 242 246 245 246 246 249 252 253 254 256 260 265 271 277 283 288 288 290 294 299
202 200 201 208 214 219 223 228 231 233 236 236 232 237 239 237 235 230 233 238 239 241 244 248 247 248 252 254 254 254 253 254 256 258 261 265 269 276 278 281 284 286 289
204 210 216 221 225 231 235 239 239 241 239 237 236 236 238 239 241 242 243 248 251 252 253 254 255 256 256 256 255 254 253 254 255 256 259 262 265 268 270 274 277 279 284
216 221 227 233 237 240 242 242 241 242 244 248 250 249 255 254 258 256 258 258 258 259 259 259 260 258 257 255 253 252 251 252 253 254 257 260 262 264 266 269 272 275 279
226 235 246 251 247 243 242 246 249 253 257 260 259 258 259 261 259 259 260 262 263 264 264 263 261 259 258 256 254 252 251 251 251 254 255 256 259 262 263 265 268 272 275
232 236 237 238 240 244 249 254 259 263 265 265 266 266 266 266 267 268 268 269 269 268 267 264 262 261 259 257 255 253 251 251 252 252 253 255 257 258 260 261 265 268 270
234 240 247 254 260 265 267 268 271 274 275 274 273 271 271 271 271 271 270 270 270 269 268 266 264 261 260 259 258 256 253 251 252 251 252 252 253 254 256 258 261 265 268
Wind_Speed_850mb
22 28 37 47 56 59 66 64 62 62 61 64 65 70 70 79 78 76 83 79 81 77 76 74 70 61 55 49 43 37 29 20 15 16 18 29 29 29 29 30 33 37 40
25 31 38 44 53 60 63 61 62 60 60 60 64 70 74 70 78 80 81 82 81 79 80 76 67 63 57 50 42 34 22 19 18 17 26 27 28 28 28 31 35 40 44
34 34 42 49 55 59 60 60 59 59 60 58 65 70 72 77 82 90 85 76 77 80 85 79 71 62 54 48 40 27 25 24 19 18 23 24 28 27 28 32 37 43 51
44 46 46 51 58 60 59 58 56 55 58 58 59 59 65 69 80 81 84 78 77 75 72 70 66 63 58 47 32 25 22 21 17 23 29 28 28 29 33 39 44 51 61
49 50 49 52 58 59 60 56 53 53 57 57 61 63 65 67 74 75 77 76 71 71 64 58 53 51 38 34 21 21 23 22 23 30 29 32 34 36 41 46 55 63 68
63 61 56 59 60 61 61 58 53 53 55 57 58 59 60 64 71 73 73 70 73 70 68 63 59 48 43 24 21 29 25 24 31 34 32 37 41 44 46 52 60 66 73
71 67 63 62 63 61 59 59 56 52 54 56 56 57 56 59 66 73 69 67 71 67 63 68 65 51 35 23 23 30 35 35 35 35 38 39 46 47 52 57 61 64 70
60 59 58 59 58 57 57 58 57 51 54 56 56 53 56 55 65 66 65 66 66 67 69 63 60 48 23 24 42 42 42 42 38 40 41 41 49 52 56 59 62 64 69
53 52 51 52 53 55 55 55 55 51 52 54 50 53 53 50 60 66 67 63 68 65 63 64 53 33 19 52 44 43 50 49 50 46 41 43 50 52 53 52 50 53 67
47 45 43 43 45 48 45 48 49 52 52 53 49 49 48 45 54 54 60 67 66 70 72 67 58 32 59 48 45 48 54 51 48 46 45 47 50 51 46 41 47 54 59
42 40 38 37 36 37 39 43 43 48 47 45 42 40 40 41 48 60 74 75 77 74 74 72 62 65 56 44 50 49 48 47 48 49 47 48 48 50 52 53 51 52 58
38 36 34 32 31 32 35 34 38 37 37 37 35 34 34 40 47 60 73 76 67 72 72 69 62 61 50 46 44 47 46 46 46 46 45 47 48 51 54 55 57 59 58
30 30 28 25 26 26 26 30 31 30 29 29 29 30 36 38 47 56 62 62 61 66 66 65 60 52 50 50 50 43 50 50 48 49 49 49 49 51 54 56 55 55 58
22 23 24 26 27 28 31 31 30 28 26 25 24 26 31 36 50 60 61 59 61 63 60 57 56 55 49 42 49 53 54 49 48 49 49 47 49 51 50 50 52 52 54
22 24 26 25 26 28 26 24 23 18 16 13 12 18 25 32 43 53 63 60 56 57 59 55 61 63 64 60 57 52 51 49 47 46 44 47 46 45 44 48 48 48 48
26 28 27 30 29 26 25 23 21 21 22 20 19 18 17 23 31 45 53 55 61 60 56 63 69 65 66 64 56 54 52 47 45 44 45 42 41 41 43 43 44 43 43
24 24 22 21 20 19 17 15 17 21 24 26 25 27 25 28 29 30 40 47 52 57 63 65 64 70 67 62 58 53 49 45 43 44 42 40 39 39 38 40 40 39 38
21 19 19 17 17 18 18 16 16 18 22 25 27 26 25 28 32 35 36 42 54 59 67 66 68 67 65 62 58 52 48 44 43 42 41 38 36 35 36 38 37 35 34
19 18 17 19 18 19 20 22 20 19 19 21 22 24 26 28 26 26 35 46 52 59 61 57 60 60 56 52 49 47 46 45 44 41 39 36 33 32 33 34 33 31 31
21 18 17 18 19 20 20 22 22 23 22 22 21 24 24 28 34 40 46 49 52 55 55 55 51 49 47 46 47 47 47 46 44 41 38 35 33 32 32 32 30 30 30
22 20 18 18 18 17 17 19 20 22 22 20 24 22 22 24 25 27 33 34 36 39 42 44 45 45 46 47 48 47 47 46 44 41 39 36 33 31 31 32 31 31 31
20 19 19 18 18 19 21 23 24 26 26 27 26 28 32 36 33 32 36 38 40 42 43 45 47 48 48 49 49 48 47 46 44 42 40 37 35 33 32 31 32 32 32
17 17 18 18 18 19 21 23 23 26 26 26 27 30 36 37 37 40 43 45 47 49 50 51 52 51 51 52 51 50 47 46 44 43 42 40 37 36 34 32 32 33 33
15 15 16 16 18 18 19 20 21 24 25 27 30 34 38 41 44 47 49 49 49 50 50 51 52 53 54 53 51 50 48 48 47 46 45 42 41 40 36 34 34 35 35
15 16 17 18 19 20 20 22 24 26 26 29 32 35 39 42 45 47 49 52 53 54 53 54 55 55 56 55 53 51 49 51 50 50 48 45 43 42 39 36 36 37 37
11 13 14 16 17 19 21 23 25 28 31 34 37 41 44 46 47 50 52 52 53 55 56 56 55 55 56 56 55 54 53 53 53 51 50 47 45 43 40 37 36 37 37
Wind_Direction_850mb
284 269 256 248 243 239 240 242 243 242 236 231 233 232 232 232 234 228 227 233 235 228 225 223 223 225 223 217 207 201 200 201 209 213 253 262 266 275 288 297 305 308 312
291 283 268 255 246 242 243 245 243 242 237 233 235 236 238 234 237 233 232 234 231 229 223 221 221 216 210 203 195 189 204 213 228 247 253 262 272 282 293 301 308 312 314
276 276 272 263 251 244 245 247 246 242 239 240 241 241 241 243 236 234 229 229 228 225 222 221 219 210 201 191 190 206 206 243 235 244 252 265 276 286 296 304 309 310 312
256 254 257 260 256 249 248 247 248 243 241 243 247 243 249 247 242 237 233 224 224 221 217 213 209 202 194 189 197 214 231 219 249 260 262 266 278 290 296 301 305 310 311
275 268 267 267 262 253 249 248 250 245 241 241 242 247 251 251 241 238 234 227 222 218 211 207 201 188 189 188 222 223 216 238 249 251 260 277 281 287 296 303 306 308 309
276 276 272 270 268 260 254 250 250 246 244 244 246 251 250 248 243 237 228 221 213 214 211 198 191 191 193 213 228 212 237 251 245 252 265 276 284 290 298 302 305 309 310
277 275 271 267 267 263 256 250 249 247 244 244 246 251 252 247 244 236 223 216 219 206 214 200 192 196 207 242 248 276 261 240 250 262 272 283 288 294 297 301 303 304 303
276 275 271 266 263 259 253 251 248 246 245 248 246 249 254 250 246 232 217 213 218 218 204 213 204 201 233 285 286 271 244 241 252 260 265 281 289 295 298 300 301 303 307
273 273 271 266 260 255 250 248 246 243 244 247 250 247 248 247 245 230 214 210 214 206 215 201 201 221 266 267 274 257 246 247 252 263 274 282 287 290 295 298 295 297 298
271 270 265 259 256 254 250 246 245 242 244 246 248 247 247 243 244 224 203 206 213 215 206 210 219 231 250 261 278 258 254 258 263 269 272 279 285 290 291 290 296 294 295
271 265 259 253 246 242 238 237 236 237 239 245 247 250 249 246 241 220 205 207 211 213 215 218 219 238 253 266 281 274 268 263 268 276 281 287 294 299 304 302 300 299 298
267 263 256 247 239 232 228 225 225 230 232 236 240 243 246 243 231 216 204 209 213 217 223 228 233 245 255 271 274 268 261 263 270 276 280 283 285 290 294 299 301 299 298
250 244 237 234 229 220 220 221 218 216 221 230 235 237 238 228 217 212 211 209 212 221 229 227 244 251 265 271 278 258 254 259 264 273 278 283 286 290 294 297 301 305 306
229 222 217 208 207 202 198 202 207 206 208 216 224 230 234 224 213 206 206 215 222 225 223 233 246 252 265 263 265 253 253 257 268 271 275 281 286 290 295 301 305 309 313
222 213 202 195 192 194 196 200 205 199 197 199 218 230 231 226 223 216 214 212 217 220 231 235 239 253 261 261 261 252 252 261 265 269 275 280 284 291 299 303 308 313 318
208 196 193 189 182 183 187 185 184 187 187 192 196 198 212 225 230 226 226 225 230 235 232 238 249 254 257 257 252 251 256 261 264 271 276 280 287 293 299 304 309 314 320
196 195 198 195 183 183 185 186 195 196 197 202 205 207 204 206 212 213 224 231 229 228 240 249 249 253 250 251 251 253 255 257 264 271 275 279 284 292 300 303 309 315 318
193 186 190 200 187 179 179 192 199 214 207 204 208 210 205 207 208 209 212 217 224 231 242 246 248 247 248 248 247 248 251 257 264 265 268 275 283 291 298 302 307 310 313
193 195 192 199 199 194 190 193 196 205 208 212 212 214 218 216 215 216 217 225 230 231 240 242 242 243 244 245 245 247 253 257 259 261 267 274 281 288 294 297 299 303 306
206 200 200 203 202 200 201 206 206 215 221 216 218 227 230 228 223 221 225 225 224 230 236 242 246 245 246 246 249 252 253 254 256 260 265 271 277 283 288 288 290 294 299
202 200 201 208 214 219 223 228 231 233 236 236 232 237 239 237 235 230 233 238 239 241 244 248 247 248 252 254 254 254 253 254 256 258 261 265 269 276 278 281 284 286 289
204 210 216 221 225 231 235 239 239 241 239 237 236 236 238 239 241 242 243 248 251 252 253 254 255 256 256 256 255 254 253 254 255 256 259 262 265 268 270 274 277 279 284
216 221 227 233 237 240 242 242 241 242 244 248 250 249 255 254 258 256 258 258 258 259 259 259 260 258 257 255 253 252 251 252 253 254 257 260 262 264 266 269 272 275 279
226 235 246 251 247 243 242 246 249 253 257 260 259 258 259 261 259 259 260 262 263 264 264 263 261 259 258 256 254 252 251 251 251 254 255 256 259 262 263 265 268 272 275
232 236 237 238 240 244 249 254 259 263 265 265 266 266 266 266 267 268 268 269 269 268 267 264 262 261 259 257 255 253 251 251 252 252 253 255 257 258 260 261 265 268 270
234 240 247 254 260 265 267 268 271 274 275 274 273 271 271 271 271 271 270 270 270 269 268 266 264 261 260 259 258 256 253 251 252 251 252 252 253 254 256 258 261 265 268